Location: Dampvalley
(47.9094°N, 6.1967°E)
Time: 19:28:07
(UTC+00:00)

ARIANE 5 R/B - Pass Details

Date: 05 March 2021
Orbit: 749 x 794 km, 98.7° (Epoch: 20 April)

Event Time Altitude Azimuth Distance (km) Brightness Sun altitude
Rises 02:18:27 0° 19° (NNE) 3,219 6.4 -37.1°
Reaches altitude 10° 02:20:49 10° 25° (NNE) 2,294 5.6 -36.8°
Enters shadow 02:23:17 27° 40° (NE) 1,424 4.3 -36.5°
